Regional Weather Roundup
Issued by NWS

Home | Current Version | Previous Version | Text Only | Print | Product List | Glossary On
Versions: 1 2 3 4 5 6 7 8 9 10 11 12 13 14 15 16 17 18 19 20 21 22 23 24 25 26 27 28 29 30 31 32 33 34 35 36 37 38 39 40 41 42 43 44 45 46 47 48 49 50
000
ASUS44 KEWX 280903
RWRTX
SOUTH TEXAS REGIONAL WEATHER ROUNDUP
NATIONAL WEATHER SERVICE AUSTIN/SAN ANTONIO TX
400 AM CDT TUE MAR 28 2017

NOTE: "FAIR" INDICATED FEW OR NO CLOUDS BELOW 12,000 FEET WITH NO
SIGNIFICANT WEATHER AND/OR OBSTRUCTIONS TO VISIBILITY.

* - THESE STATIONS ARE NOT NWS OR FAA STATIONS...AND ARE NOT SUBJECT
    TO NWS AND FAA QUALITY CONTROL.

TXZ171-172-183>190-281000-
TEXAS HILL COUNTRY AND EDWARDS PLATEAU

CITY           SKY/WX    TMP DP  RH WIND       PRES   REMARKS
JUNCTION       CLEAR     66  64  93 E8        29.79F FOG
*LLANO         LGT RAIN  72  66  83 SE6       29.86F
BURNET         CLOUDY    70  65  84 SE7       29.85F
*HORSESHOE BAY CLOUDY    70  66  85 CALM      29.83F FOG
*KERRVILLE     CLOUDY    69  66  91 SE7       29.83F
*FREDERICKSBRG CLOUDY    67  63  85 SE6       29.84F
*ROCKSPRINGS   CLOUDY    68  66  94 S15G23    29.83F FOG
*BOERNE STAGE  CLOUDY    68  64  88 SE3       29.84F
*CASTROVILLE   CLOUDY    70  68  95 SE8       29.82F
HONDO          CLOUDY    72  68  87 SE9       29.80F
*UVALDE        CLOUDY    69  67  94 E8        29.79F
DEL RIO        CLOUDY    71  68  90 SE16      29.72F
LAUGHLIN AFB   CLOUDY    71  69  94 SE14      29.73F
CARRIZO SPRGS  CLOUDY    68  68 100 E7        29.74F FOG
*EAGLE PASS    CLOUDY    70  68  94 E9        29.73F
$$

TXZ173-191>194-202-209-217>225-228-281000-
CENTRAL AND SOUTH CENTRAL TEXAS

CITY           SKY/WX    TMP DP  RH WIND       PRES   REMARKS
GEORGETOWN     MOCLDY    70  63  78 SE5       29.83F
AUSTIN/BERGSTM CLOUDY    71  68  90 E6        29.82F
AUSTIN/MABRY   CLOUDY    71  67  87 SE5       29.84F
*AUSTIN/EXEC     N/A    N/A N/A N/A MISG        N/A
*LAGO VISTA    CLOUDY    69  67  92 SE3       29.85F
SAN MARCOS     CLOUDY    70  66  88 SE7       29.84S
NEW BRAUNFELS  CLOUDY    71  67  87 SE7       29.81F
RANDOLPH AFB   CLOUDY    70  70 100 SE5       29.82S
PT SAN ANTONIO CLOUDY    71  68  90 SE8       29.79F
SAN ANTONIO    CLOUDY    70  66  87 SE9       29.82F
STINSON FIELD  CLOUDY    72  67  84 E5        29.79F
*PLEASANTON    CLOUDY    71  68  92 E3        29.80F
*LA GRANGE     CLOUDY    72  71  96 CALM      29.82F FOG
*GIDDINGS      CLOUDY    68  67  94 CALM      29.86S FOG
*GONZALES      CLOUDY    71  71 100 SE3       29.82F
$$

TXZ163>164-176>182-195>201-210>213-226-227-235-281000-
SOUTHEAST TEXAS

CITY           SKY/WX    TMP DP  RH WIND       PRES   REMARKS
COLLEGE STN    CLOUDY    69  69 100 SE9       29.86F FOG
*BRYAN         CLOUDY    68  68 100 SE5       29.87F FOG
*CALDWELL      NOT AVBL
*CROCKETT      PTCLDY    68  66  94 CALM      29.91F FOG
*BRENHAM       CLOUDY    71  71  99 SE5       29.86F FOG
HUNTSVILLE     MOCLDY    70  67  90 VRB3      29.87F
CONROE         FOG       67  67 100 CALM      29.87F VSB 1/4
HOUSTON BUSH   CLOUDY    71  69  93 SE5       29.86F FOG
HOUSTON HOBBY  MOCLDY    72  70  93 SE7       29.85F
*HOUSTON SW AP CLOUDY    71  69  93 SE5       29.86F
PEARLAND       CLOUDY    76  71  85 SE5       29.87F
HOUSTON HOOKS  CLOUDY    70  69  97 E3        29.86F
ELLINGTON FLD  NOT AVBL
SUGAR LAND     CLOUDY    73  72  96 SE6       29.85F
*HOUSTON EXEC  CLOUDY    72  72 100 SE6       29.87S FOG
*CLEVELAND MUN CLOUDY    71  70  97 S3        29.89S FOG
*WHARTON       CLOUDY    71  70  96 E5        29.85F FOG
*COLUMBUS      CLOUDY    70  69  95 E6        29.84F FOG
*EAGLE LAKE    FOG       71  71 100 SE6       29.84S VSB 3/4
$$

TXZ214>216-236>238-281000-
THE UPPER TEXAS COAST

CITY           SKY/WX    TMP DP  RH WIND       PRES   REMARKS
*ORANGE        CLOUDY    73  72  95 S10       29.90F
PORT ARTHUR    CLOUDY    73  70  90 S9        29.88F
GALVESTON      CLOUDY    75  73  93 SE10      29.87F
ANGLETON       CLOUDY    75  71  87 S10       29.84F
*BAY CITY      CLOUDY    74  73  96 SE8       29.84S
PALACIOS       MOCLDY    73  71  93 SE16G24   29.81F
$$

TXZ229>234-239>247-281000-
TEXAS COASTAL BEND AND RIO GRANDE PLAINS

CITY           SKY/WX    TMP DP  RH WIND       PRES   REMARKS
VICTORIA       CLOUDY    73  71  93 S8        29.81F FOG
*BEEVILLE      CLOUDY    74  74 100 S9        29.79F
ROCKPORT       CLOUDY    74  71  91 SE10G21   29.79F
*PORT ARANSAS  PTCLDY    72  71  98 S10G17    29.78F FOG
*PORT LAVACA   CLOUDY    73  73  97 S12G17    29.81F
*INGLESIDE     CLOUDY    75  72  92 SE9G20    29.78F
CORPUS CHRISTI MOCLDY    73  72  96 SE16      29.78F
CORPUS NAS     PTCLDY   N/A N/A N/A SE17G28     N/A
*ROBSTOWN      CLOUDY    75  75  98 S14G21    29.79F
ALICE          CLOUDY    72  71  97 SE7       29.76F FOG
KINGSVILLE NAS CLOUDY    74  74 100 SE13      29.76F
COTULLA        CLOUDY    71  68  90 SE9       29.77F
*FAITH RANCH   CLOUDY    70  68  94 E7        29.74F
LAREDO         CLOUDY    74  68  81 SE13      29.74F
$$

TXZ248>255-281000-
DEEP SOUTH TEXAS

CITY           SKY/WX    TMP DP  RH WIND       PRES   REMARKS
BROWNSVILLE    CLOUDY    74  72  93 SE7       29.79F
PORT ISABEL    CLOUDY    75  72  90 SE10      29.78F
*SOUTH PADRE   NOT AVBL
HARLINGEN      CLOUDY    74  74 100 SE12      29.76F
*HEBBRONVILLE  CLOUDY    71  69  91 S12G18    29.76F
MCALLEN        MOCLDY    76  71  85 SE13      29.76F
*WESLACO       CLOUDY    73  71  93 S10       29.76F
FALFURRIAS     CLOUDY    73  72  95 SE7       29.75F
EDINBURG       CLOUDY    76  71  85 SE14      29.76F
*ZAPATA        CLOUDY    75  67  76 SE9G16    29.72F
$$

TXZ213>215-236>238-242>244-246-247-251-254-255-281000-
CMAN STATIONS

STATION/POSITION TIME  TEMP    WIND        PRES    WAVE
                       AIR SEA DIR/SP/G            HT/PER
                 (UTC) (F)     (DEG/KT/KT) (MB)    (FT/S)
SABINE PASS      0830   72 75  170/  8/ 11 1013.4
SEA RIM ST PARK  0800   72     170/  9/ 11 1012.7
NORTH JETTY/GLS  0830      73  150/ 10/ 12   N/A
EAGLE POINT      0830   74 76  180/ 10/ 13 1011.3
MORGANS POINT    0830   74 75  170/  9/ 13 1011.4
MISSION/ARANSAS  0800   75                 1010.0
PORT O`CONNOR    0830   73     140/ 18/ 20 1009.1
PORT ARANSAS     0800   72 73  150/ 14/ 16 1009.1
MALAQUITE BEACH  0830   73 75  130/ 16/ 19 1009.0
BAFFIN BAY       0830   73 76  110/ 15/ 19 1008.5
PORT ISABEL      0830   75 76  150/ 10/ 15 1008.7
$$

GMZ080-GMZ150>470-281000-
OFFSHORE BUOY REPORTS

STATION/POSITION TIME  TEMP    WIND        PRES    WAVE
                       AIR SEA DIR/SP/G            HT/PER
                 (UTC) (F)     (DEG/KT/KT) (MB)    (FT/S)
20 E GALVESTON   0750   73 73  170/ 12/ 14 1011.8    3/ 7
90 E PT ARANSAS  0750   74 73  160/ 12/ 14 1010.9    5/ 7
35 NE PT MANSFLD 0750   74     150/ 14/ 16 1008.9    5/ 7
200 E PT ISABEL  0750   76 77  140/ 16/ 19 1011.2    6/ 7
$$




USA.gov is the U.S. government's official web portal to all federal, state and local government web resources and services.